Вернуться в каталог

SL-14 DEB

АктивенPO
NORAD 19646·DEBRIS·🇷🇺 Russia

Запущен Oct 26, 1978 с Plesetsk Cosmodrome

Loading…

Ближайшие Пролёты (ближайшие 24 часа)

TLE

СвежийSource: Space-Track

Эпоха: Sep 14, 2026, 03:56 UTC

1 19646U 78100AM  26257.16448242  .00005272  00000-0  10898-1 0  9998
2 19646  82.1246 204.2267 0058037 164.8289 259.4572 13.31554569428555

Отслеживайте SL-14 DEB в реальном времени с AllMySat

Download on the App Store